Time,TemperatureF,DewpointF,PressureIn,WindDirection,WindDirectionDegrees,WindSpeedMPH,WindSpeedGustMPH,Humidity,HourlyPrecipIn,Conditions,Clouds,dailyrainin,SolarRadiationWatts/m^2,SoftwareType,DateUTC
2013-04-20 00:03:00,65.1,61.8,30.01,NNW,328,3.0,5.0,89,0.00,,,0.08,0,Wunderground v.1.15,2013-04-20 04:03:00,
2013-04-20 00:08:00,64.4,61.1,30.01,NW,306,4.0,5.0,89,0.46,,,0.01,0,Wunderground v.1.15,2013-04-20 04:08:00,
2013-04-20 00:13:00,63.9,60.9,30.01,NW,310,3.0,3.0,90,0.11,,,0.01,0,Wunderground v.1.15,2013-04-20 04:13:00,
2013-04-20 00:18:00,63.7,60.7,30.01,NW,311,1.0,3.0,90,0.08,,,0.02,0,Wunderground v.1.15,2013-04-20 04:18:00,
2013-04-20 00:28:00,62.9,60.2,30.01,NW,312,2.0,4.0,91,0.47,,,0.10,0,Wunderground v.1.15,2013-04-20 04:28:00,
2013-04-20 00:33:00,62.5,59.5,30.02,NW,312,1.0,1.0,90,0.11,,,0.10,0,Wunderground v.1.15,2013-04-20 04:33:00,
2013-04-20 00:43:00,62.0,59.3,30.02,NW,312,1.0,5.0,91,0.04,,,0.10,0,Wunderground v.1.15,2013-04-20 04:43:00,
2013-04-20 00:48:00,61.9,59.5,30.02,NW,312,0.0,5.0,92,0.00,,,0.10,0,Wunderground v.1.15,2013-04-20 04:48:00,
2013-04-20 00:58:00,61.9,59.5,30.03,NW,312,0.0,0.0,92,0.00,,,0.11,0,Wunderground v.1.15,2013-04-20 04:58:00,
2013-04-20 01:03:00,61.8,59.5,30.03,NW,312,0.0,0.0,92,0.59,,,0.19,0,Wunderground v.1.15,2013-04-20 05:03:00,
2013-04-20 01:13:00,61.7,59.7,30.02,NW,312,0.0,0.0,93,0.16,,,0.23,0,Wunderground v.1.15,2013-04-20 05:13:00,
2013-04-20 01:18:00,61.7,59.4,30.02,NW,312,0.0,0.0,92,0.32,,,0.26,0,Wunderground v.1.15,2013-04-20 05:18:00,
2013-04-20 01:28:00,61.6,59.6,30.02,NW,312,0.0,1.0,93,0.09,,,0.28,0,Wunderground v.1.15,2013-04-20 05:28:00,
2013-04-20 01:33:00,61.4,59.4,30.03,NW,312,0.0,0.0,93,0.05,,,0.28,0,Wunderground v.1.15,2013-04-20 05:33:00,
2013-04-20 01:43:00,61.4,59.4,30.03,NW,312,0.0,0.0,93,0.00,,,0.28,0,Wunderground v.1.15,2013-04-20 05:43:00,
2013-04-20 01:48:00,61.4,59.4,30.03,NW,312,0.0,0.0,93,0.00,,,0.29,0,Wunderground v.1.15,2013-04-20 05:48:00,
2013-04-20 01:58:00,61.5,59.8,30.02,NW,312,0.0,0.0,94,0.00,,,0.29,0,Wunderground v.1.15,2013-04-20 05:58:00,
2013-04-20 02:03:00,61.5,59.8,30.02,NW,312,0.0,0.0,94,0.00,,,0.29,0,Wunderground v.1.15,2013-04-20 06:03:00,
2013-04-20 02:13:00,61.4,59.7,30.01,NW,312,0.0,0.0,94,0.00,,,0.29,0,Wunderground v.1.15,2013-04-20 06:13:00,
2013-04-20 02:18:00,61.3,59.6,30.00,NW,312,0.0,0.0,94,0.00,,,0.29,0,Wunderground v.1.15,2013-04-20 06:18:00,
2013-04-20 02:28:00,61.1,59.4,30.00,NW,312,0.0,0.0,94,0.00,,,0.29,0,Wunderground v.1.15,2013-04-20 06:28:00,
2013-04-20 02:33:00,60.8,59.1,30.01,NW,312,0.0,0.0,94,0.00,,,0.29,0,Wunderground v.1.15,2013-04-20 06:33:00,
2013-04-20 02:43:00,60.3,58.3,30.00,NW,312,0.0,0.0,93,0.00,,,0.29,0,Wunderground v.1.15,2013-04-20 06:43:00,
2013-04-20 02:48:00,60.1,58.4,30.01,NW,312,0.0,0.0,94,0.00,,,0.29,0,Wunderground v.1.15,2013-04-20 06:48:00,
2013-04-20 02:58:00,59.6,57.6,30.02,NW,313,1.0,1.0,93,0.00,,,0.29,0,Wunderground v.1.15,2013-04-20 06:58:00,
2013-04-20 03:03:00,59.3,57.3,30.02,NNW,328,2.0,5.0,93,0.00,,,0.29,0,Wunderground v.1.15,2013-04-20 07:03:00,
2013-04-20 03:13:00,59.2,57.2,30.03,NNW,328,1.0,1.0,93,0.00,,,0.29,0,Wunderground v.1.15,2013-04-20 07:13:00,
2013-04-20 03:18:00,59.2,57.2,30.03,NW,311,2.0,2.0,93,0.00,,,0.29,0,Wunderground v.1.15,2013-04-20 07:18:00,
2013-04-20 03:28:00,59.3,57.3,30.02,North,356,2.0,8.0,93,0.00,,,0.30,0,Wunderground v.1.15,2013-04-20 07:28:00,
2013-04-20 03:33:00,59.1,57.1,30.02,NE,49,3.0,4.0,93,0.00,,,0.30,0,Wunderground v.1.15,2013-04-20 07:33:00,
2013-04-20 03:43:00,58.9,56.9,30.03,NNE,20,3.0,9.0,93,0.00,,,0.30,0,Wunderground v.1.15,2013-04-20 07:43:00,
2013-04-20 03:48:00,58.8,56.8,30.04,NNW,330,2.0,9.0,93,0.00,,,0.30,0,Wunderground v.1.15,2013-04-20 07:48:00,
2013-04-20 03:58:00,58.7,56.7,30.03,NW,326,2.0,5.0,93,0.00,,,0.30,0,Wunderground v.1.15,2013-04-20 07:58:00,
2013-04-20 04:03:00,58.6,56.6,30.03,NW,322,1.0,1.0,93,0.00,,,0.30,0,Wunderground v.1.15,2013-04-20 08:03:00,
2013-04-20 04:13:00,58.3,56.3,30.03,NNW,330,1.0,1.0,93,0.00,,,0.30,0,Wunderground v.1.15,2013-04-20 08:13:00,
2013-04-20 04:18:00,58.2,56.2,30.03,NNW,334,1.0,1.0,93,0.00,,,0.30,0,Wunderground v.1.15,2013-04-20 08:18:00,
2013-04-20 04:28:00,57.7,55.7,30.03,North,353,2.0,2.0,93,0.18,,,0.32,0,Wunderground v.1.15,2013-04-20 08:28:00,
2013-04-20 04:33:00,57.5,55.5,30.03,North,351,1.0,1.0,93,0.19,,,0.34,0,Wunderground v.1.15,2013-04-20 08:33:00,
2013-04-20 04:43:00,57.0,55.0,30.03,North,350,1.0,1.0,93,0.06,,,0.35,0,Wunderground v.1.15,2013-04-20 08:43:00,
2013-04-20 04:48:00,56.9,54.9,30.04,NNW,343,1.0,6.0,93,0.04,,,0.35,0,Wunderground v.1.15,2013-04-20 08:48:00,
2013-04-20 04:58:00,56.6,54.6,30.04,NNW,342,1.0,1.0,93,0.09,,,0.37,0,Wunderground v.1.15,2013-04-20 08:58:00,
2013-04-20 05:03:00,56.6,54.6,30.03,North,349,1.0,1.0,93,0.12,,,0.38,0,Wunderground v.1.15,2013-04-20 09:03:00,
2013-04-20 05:13:00,56.4,54.4,30.03,North,349,1.0,4.0,93,0.08,,,0.39,0,Wunderground v.1.15,2013-04-20 09:13:00,
2013-04-20 05:18:00,56.4,54.7,30.04,North,349,1.0,4.0,94,0.28,,,0.41,0,Wunderground v.1.15,2013-04-20 09:18:00,
2013-04-20 05:28:00,56.3,54.6,30.04,North,351,1.0,4.0,94,0.05,,,0.41,0,Wunderground v.1.15,2013-04-20 09:28:00,
2013-04-20 05:33:00,56.2,54.5,30.04,North,351,1.0,1.0,94,0.04,,,0.41,0,Wunderground v.1.15,2013-04-20 09:33:00,
2013-04-20 05:43:00,56.2,54.5,30.06,North,351,1.0,1.0,94,0.00,,,0.41,0,Wunderground v.1.15,2013-04-20 09:43:00,
2013-04-20 05:48:00,56.3,54.6,30.06,North,351,1.0,1.0,94,0.00,,,0.41,0,Wunderground v.1.15,2013-04-20 09:48:00,
2013-04-20 05:58:00,56.0,54.3,30.07,NNW,339,2.0,2.0,94,0.00,,,0.41,0,Wunderground v.1.15,2013-04-20 09:58:00,
2013-04-20 06:03:00,55.5,53.8,30.07,North,353,2.0,3.0,94,0.00,,,0.41,0,Wunderground v.1.15,2013-04-20 10:03:00,
2013-04-20 06:13:00,54.4,52.7,30.08,NNE,33,2.0,2.0,94,0.00,,,0.42,0,Wunderground v.1.15,2013-04-20 10:13:00,
2013-04-20 06:18:00,54.0,52.3,30.08,NNW,333,2.0,2.0,94,0.00,,,0.42,0,Wunderground v.1.15,2013-04-20 10:18:00,
2013-04-20 06:28:00,53.6,51.9,30.08,NW,305,1.0,2.0,94,0.14,,,0.44,0,Wunderground v.1.15,2013-04-20 10:28:00,
2013-04-20 06:33:00,53.5,51.8,30.08,NW,325,1.0,2.0,94,0.15,,,0.46,0,Wunderground v.1.15,2013-04-20 10:33:00,
2013-04-20 06:43:00,53.0,51.3,30.07,NNW,329,1.0,4.0,94,0.13,,,0.48,0,Wunderground v.1.15,2013-04-20 10:43:00,
2013-04-20 06:48:00,52.6,50.9,30.07,NNW,329,1.0,4.0,94,0.13,,,0.49,0,Wunderground v.1.15,2013-04-20 10:48:00,
2013-04-20 06:58:00,52.2,50.5,30.07,North,351,1.0,1.0,94,0.11,,,0.51,0,Wunderground v.1.15,2013-04-20 10:58:00,
2013-04-20 07:03:00,52.0,50.3,30.09,NNW,347,1.0,1.0,94,0.05,,,0.51,0,Wunderground v.1.15,2013-04-20 11:03:00,
2013-04-20 07:13:00,52.0,50.3,30.08,North,351,1.0,1.0,94,0.00,,,0.51,0,Wunderground v.1.15,2013-04-20 11:13:00,
2013-04-20 07:18:00,52.0,50.3,30.09,North,352,1.0,1.0,94,0.00,,,0.51,5,Wunderground v.1.15,2013-04-20 11:18:00,
2013-04-20 07:28:00,52.1,50.4,30.09,North,352,0.0,1.0,94,0.00,,,0.51,5,Wunderground v.1.15,2013-04-20 11:28:00,
2013-04-20 07:33:00,52.2,50.5,30.09,North,352,0.0,0.0,94,0.00,,,0.51,11,Wunderground v.1.15,2013-04-20 11:33:00,
2013-04-20 07:43:00,52.3,50.6,30.09,North,364,1.0,1.0,94,0.00,,,0.52,14,Wunderground v.1.15,2013-04-20 11:43:00,
2013-04-20 07:48:00,52.3,50.6,30.09,North,364,1.0,1.0,94,0.00,,,0.52,16,Wunderground v.1.15,2013-04-20 11:48:00,
2013-04-20 07:58:00,52.3,50.6,30.10,North,364,1.0,1.0,94,0.00,,,0.52,11,Wunderground v.1.15,2013-04-20 11:58:00,
2013-04-20 08:03:00,52.4,51.0,30.10,North,364,0.0,0.0,95,0.00,,,0.52,12,Wunderground v.1.15,2013-04-20 12:03:00,
2013-04-20 08:13:00,52.4,51.0,30.11,North,364,0.0,0.0,95,0.00,,,0.52,25,Wunderground v.1.15,2013-04-20 12:13:00,
2013-04-20 08:18:00,52.5,51.1,30.12,North,351,0.0,0.0,95,0.00,,,0.52,14,Wunderground v.1.15,2013-04-20 12:18:00,
2013-04-20 08:28:00,52.6,51.2,30.12,North,351,0.0,0.0,95,0.00,,,0.52,23,Wunderground v.1.15,2013-04-20 12:28:00,
2013-04-20 08:33:00,52.7,51.3,30.12,North,351,0.0,0.0,95,0.00,,,0.52,19,Wunderground v.1.15,2013-04-20 12:33:00,
2013-04-20 08:43:00,52.6,51.2,30.13,North,351,1.0,1.0,95,0.00,,,0.52,12,Wunderground v.1.15,2013-04-20 12:43:00,
2013-04-20 08:48:00,52.4,51.0,30.13,North,353,1.0,1.0,95,0.00,,,0.52,14,Wunderground v.1.15,2013-04-20 12:48:00,
2013-04-20 08:58:00,52.0,50.6,30.14,NNE,14,1.0,1.0,95,0.00,,,0.53,23,Wunderground v.1.15,2013-04-20 12:58:00,
2013-04-20 09:03:00,51.6,49.9,30.14,North,364,1.0,1.0,94,0.00,,,0.53,21,Wunderground v.1.15,2013-04-20 13:03:00,
2013-04-20 09:13:00,51.1,49.4,30.13,North,364,1.0,1.0,94,0.00,,,0.54,26,Wunderground v.1.15,2013-04-20 13:13:00,
2013-04-20 09:23:00,50.6,48.9,30.14,North,364,0.0,0.0,94,0.17,,,0.56,23,Wunderground v.1.15,2013-04-20 13:23:00,
2013-04-20 09:28:00,50.7,49.3,30.15,North,364,0.0,0.0,95,0.13,,,0.58,39,Wunderground v.1.15,2013-04-20 13:28:00,
2013-04-20 09:33:00,50.6,48.9,30.15,North,364,1.0,2.0,94,0.16,,,0.59,54,Wunderground v.1.15,2013-04-20 13:33:00,
2013-04-20 09:43:00,50.4,48.7,30.15,NNE,14,1.0,1.0,94,0.13,,,0.61,93,Wunderground v.1.15,2013-04-20 13:43:00,
2013-04-20 09:48:00,50.6,49.2,30.16,NNE,14,1.0,4.0,95,0.06,,,0.61,70,Wunderground v.1.15,2013-04-20 13:48:00,
2013-04-20 09:58:00,50.7,49.3,30.15,NNE,14,1.0,1.0,95,0.00,,,0.61,42,Wunderground v.1.15,2013-04-20 13:58:00,
2013-04-20 10:03:00,50.8,49.1,30.15,NNE,19,1.0,2.0,94,0.00,,,0.61,49,Wunderground v.1.15,2013-04-20 14:03:00,
2013-04-20 10:13:00,50.4,48.7,30.16,NNE,20,1.0,1.0,94,0.00,,,0.62,67,Wunderground v.1.15,2013-04-20 14:13:00,
2013-04-20 10:18:00,50.3,48.6,30.17,NNE,20,1.0,1.0,94,0.08,,,0.63,72,Wunderground v.1.15,2013-04-20 14:18:00,
2013-04-20 10:28:00,50.3,48.6,30.16,NNE,20,0.0,1.0,94,0.06,,,0.64,97,Wunderground v.1.15,2013-04-20 14:28:00,
2013-04-20 10:33:00,50.4,48.7,30.16,NNE,20,0.0,0.0,94,0.06,,,0.64,100,Wunderground v.1.15,2013-04-20 14:33:00,
2013-04-20 10:43:00,50.5,49.1,30.16,NNE,20,1.0,1.0,95,0.04,,,0.65,113,Wunderground v.1.15,2013-04-20 14:43:00,
2013-04-20 10:48:00,50.6,49.2,30.15,NNE,20,1.0,1.0,95,0.07,,,0.65,91,Wunderground v.1.15,2013-04-20 14:48:00,
2013-04-20 10:58:00,50.7,49.3,30.15,NNE,20,1.0,1.0,95,0.10,,,0.67,72,Wunderground v.1.15,2013-04-20 14:58:00,
2013-04-20 11:03:00,50.6,48.9,30.16,NNE,20,1.0,1.0,94,0.06,,,0.68,69,Wunderground v.1.15,2013-04-20 15:03:00,
2013-04-20 11:13:00,50.1,48.4,30.16,NNE,20,1.0,1.0,94,0.30,,,0.71,113,Wunderground v.1.15,2013-04-20 15:13:00,
2013-04-20 11:18:00,49.9,48.2,30.16,NNE,20,1.0,1.0,94,0.16,,,0.72,146,Wunderground v.1.15,2013-04-20 15:18:00,
2013-04-20 11:28:00,50.0,48.3,30.15,NNE,20,0.0,1.0,94,0.11,,,0.74,183,Wunderground v.1.15,2013-04-20 15:28:00,
2013-04-20 11:33:00,50.2,48.5,30.16,NNE,20,1.0,1.0,94,0.09,,,0.74,118,Wunderground v.1.15,2013-04-20 15:33:00,
2013-04-20 11:43:00,50.3,48.6,30.16,NNE,20,0.0,1.0,94,0.12,,,0.76,127,Wunderground v.1.15,2013-04-20 15:43:00,
2013-04-20 11:48:00,50.4,48.7,30.17,North,364,1.0,1.0,94,0.06,,,0.76,160,Wunderground v.1.15,2013-04-20 15:48:00,
2013-04-20 11:58:00,50.7,49.3,30.15,North,369,1.0,1.0,95,0.06,,,0.77,281,Wunderground v.1.15,2013-04-20 15:58:00,
2013-04-20 12:03:00,50.9,49.5,30.16,North,369,0.0,0.0,95,0.04,,,0.77,308,Wunderground v.1.15,2013-04-20 16:03:00,
2013-04-20 12:13:00,51.5,50.1,30.16,North,369,1.0,1.0,95,0.00,,,0.77,283,Wunderground v.1.15,2013-04-20 16:13:00,
2013-04-20 12:18:00,51.7,50.3,30.16,North,369,1.0,1.0,95,0.00,,,0.77,248,Wunderground v.1.15,2013-04-20 16:18:00,
2013-04-20 12:28:00,51.8,50.1,30.16,NNE,14,1.0,8.0,94,0.00,,,0.77,239,Wunderground v.1.15,2013-04-20 16:28:00,
2013-04-20 12:33:00,51.8,50.1,30.16,NNE,14,1.0,1.0,94,0.00,,,0.77,237,Wunderground v.1.15,2013-04-20 16:33:00,
2013-04-20 12:43:00,52.1,50.4,30.15,NNE,14,1.0,4.0,94,0.00,,,0.77,178,Wunderground v.1.15,2013-04-20 16:43:00,
2013-04-20 12:48:00,52.1,50.4,30.15,NNE,31,1.0,4.0,94,0.00,,,0.77,183,Wunderground v.1.15,2013-04-20 16:48:00,
2013-04-20 12:58:00,52.3,50.6,30.14,NNE,31,0.0,1.0,94,0.00,,,0.77,223,Wunderground v.1.15,2013-04-20 16:58:00,
2013-04-20 13:03:00,52.5,50.8,30.14,NNE,31,0.0,0.0,94,0.00,,,0.77,248,Wunderground v.1.15,2013-04-20 17:03:00,
2013-04-20 13:13:00,52.4,50.4,30.16,NNE,31,0.0,0.0,93,0.00,,,0.77,192,Wunderground v.1.15,2013-04-20 17:13:00,
2013-04-20 13:18:00,52.5,50.5,30.16,NNE,31,0.0,0.0,93,0.00,,,0.77,190,Wunderground v.1.15,2013-04-20 17:18:00,
2013-04-20 13:28:00,52.7,50.7,30.16,NNE,31,0.0,0.0,93,0.00,,,0.77,149,Wunderground v.1.15,2013-04-20 17:28:00,
2013-04-20 13:33:00,52.8,50.5,30.15,NNE,31,0.0,0.0,92,0.00,,,0.77,120,Wunderground v.1.15,2013-04-20 17:33:00,
2013-04-20 13:43:00,53.1,50.8,30.15,NNE,31,0.0,0.0,92,0.00,,,0.77,104,Wunderground v.1.15,2013-04-20 17:43:00,
2013-04-20 13:48:00,53.1,50.8,30.15,NNE,31,0.0,0.0,92,0.00,,,0.77,98,Wunderground v.1.15,2013-04-20 17:48:00,
2013-04-20 13:58:00,53.0,50.7,30.15,NNE,31,0.0,0.0,92,0.00,,,0.77,125,Wunderground v.1.15,2013-04-20 17:58:00,
2013-04-20 14:03:00,53.0,50.4,30.16,NNE,31,0.0,0.0,91,0.00,,,0.77,120,Wunderground v.1.15,2013-04-20 18:03:00,
2013-04-20 14:08:00,53.0,50.4,30.15,NNE,31,0.0,0.0,91,0.00,,,0.77,104,Wunderground v.1.15,2013-04-20 18:08:00,
2013-04-20 14:13:00,53.0,50.4,30.15,NNE,31,0.0,0.0,91,0.00,,,0.77,98,Wunderground v.1.15,2013-04-20 18:13:00,
2013-04-20 14:18:00,53.0,50.4,30.15,NNE,31,0.0,0.0,91,0.00,,,0.77,146,Wunderground v.1.15,2013-04-20 18:18:00,
2013-04-20 14:28:00,53.1,50.5,30.14,NNE,31,0.0,0.0,91,0.00,,,0.77,172,Wunderground v.1.15,2013-04-20 18:28:00,
2013-04-20 14:33:00,53.3,50.7,30.13,NNE,31,1.0,1.0,91,0.00,,,0.77,179,Wunderground v.1.15,2013-04-20 18:33:00,
2013-04-20 14:43:00,53.5,50.6,30.14,NNE,31,0.0,0.0,90,0.00,,,0.77,176,Wunderground v.1.15,2013-04-20 18:43:00,
2013-04-20 14:48:00,53.6,50.7,30.15,NNE,31,0.0,0.0,90,0.00,,,0.77,146,Wunderground v.1.15,2013-04-20 18:48:00,
2013-04-20 14:58:00,53.7,50.8,30.16,NNE,31,0.0,0.0,90,0.00,,,0.77,123,Wunderground v.1.15,2013-04-20 18:58:00,
2013-04-20 15:03:00,53.8,50.9,30.15,NNE,31,0.0,3.0,90,0.00,,,0.77,123,Wunderground v.1.15,2013-04-20 19:03:00,
2013-04-20 15:13:00,53.9,51.0,30.14,NNE,31,0.0,0.0,90,0.00,,,0.77,121,Wunderground v.1.15,2013-04-20 19:13:00,
2013-04-20 15:18:00,54.0,50.8,30.14,NNE,31,0.0,0.0,89,0.00,,,0.77,149,Wunderground v.1.15,2013-04-20 19:18:00,
2013-04-20 15:28:00,54.2,51.0,30.14,NNE,31,0.0,0.0,89,0.00,,,0.77,258,Wunderground v.1.15,2013-04-20 19:28:00,
2013-04-20 15:33:00,54.4,51.2,30.14,NNE,31,1.0,1.0,89,0.00,,,0.77,251,Wunderground v.1.15,2013-04-20 19:33:00,
2013-04-20 15:43:00,54.7,51.5,30.15,NNE,31,0.0,0.0,89,0.00,,,0.77,190,Wunderground v.1.15,2013-04-20 19:43:00,
2013-04-20 15:48:00,54.8,51.3,30.14,NNE,31,0.0,0.0,88,0.00,,,0.77,169,Wunderground v.1.15,2013-04-20 19:48:00,
2013-04-20 15:58:00,55.0,51.5,30.14,NNE,31,1.0,2.0,88,0.00,,,0.77,274,Wunderground v.1.15,2013-04-20 19:58:00,
2013-04-20 16:03:00,55.1,51.6,30.13,NNE,31,1.0,1.0,88,0.00,,,0.77,308,Wunderground v.1.15,2013-04-20 20:03:00,
2013-04-20 16:13:00,55.7,51.9,30.13,NNE,31,1.0,1.0,87,0.00,,,0.77,424,Wunderground v.1.15,2013-04-20 20:13:00,
2013-04-20 16:18:00,56.3,52.5,30.14,NNE,31,0.0,1.0,87,0.00,,,0.77,589,Wunderground v.1.15,2013-04-20 20:18:00,
2013-04-20 16:28:00,57.2,52.7,30.14,NNE,31,0.0,0.0,85,0.00,,,0.77,561,Wunderground v.1.15,2013-04-20 20:28:00,
2013-04-20 16:33:00,57.5,52.4,30.13,NNE,31,1.0,1.0,83,0.00,,,0.77,330,Wunderground v.1.15,2013-04-20 20:33:00,
2013-04-20 16:43:00,58.0,52.5,30.13,NNE,31,1.0,1.0,82,0.00,,,0.77,225,Wunderground v.1.15,2013-04-20 20:43:00,
2013-04-20 16:48:00,58.2,52.7,30.13,NNE,31,1.0,1.0,82,0.00,,,0.77,338,Wunderground v.1.15,2013-04-20 20:48:00,
2013-04-20 16:58:00,58.8,52.6,30.13,NNE,31,1.0,1.0,80,0.00,,,0.77,346,Wunderground v.1.15,2013-04-20 20:58:00,
2013-04-20 17:03:00,59.0,52.8,30.13,NNE,31,1.0,1.0,80,0.00,,,0.77,385,Wunderground v.1.15,2013-04-20 21:03:00,
2013-04-20 17:13:00,59.0,52.8,30.13,NNE,31,1.0,2.0,80,0.00,,,0.77,446,Wunderground v.1.15,2013-04-20 21:13:00,
2013-04-20 17:18:00,59.0,52.5,30.13,NNE,31,1.0,2.0,79,0.00,,,0.77,469,Wunderground v.1.15,2013-04-20 21:18:00,
2013-04-20 17:28:00,59.2,52.7,30.13,NNE,31,1.0,2.0,79,0.00,,,0.77,178,Wunderground v.1.15,2013-04-20 21:28:00,
2013-04-20 17:33:00,59.1,52.2,30.13,NNE,31,1.0,2.0,78,0.00,,,0.77,258,Wunderground v.1.15,2013-04-20 21:33:00,
2013-04-20 17:43:00,59.1,52.6,30.13,NNE,31,1.0,1.0,79,0.00,,,0.77,130,Wunderground v.1.15,2013-04-20 21:43:00,
2013-04-20 17:48:00,59.0,52.5,30.13,NNE,31,0.0,1.0,79,0.00,,,0.77,121,Wunderground v.1.15,2013-04-20 21:48:00,
2013-04-20 17:58:00,58.9,52.4,30.12,NNE,31,1.0,1.0,79,0.00,,,0.77,165,Wunderground v.1.15,2013-04-20 21:58:00,
2013-04-20 18:03:00,58.8,52.3,30.12,NNE,31,1.0,4.0,79,0.00,,,0.77,149,Wunderground v.1.15,2013-04-20 22:03:00,
2013-04-20 18:13:00,58.7,52.5,30.12,NNE,31,1.0,4.0,80,0.00,,,0.77,139,Wunderground v.1.15,2013-04-20 22:13:00,
2013-04-20 18:18:00,58.7,52.5,30.12,NNE,31,1.0,4.0,80,0.00,,,0.77,132,Wunderground v.1.15,2013-04-20 22:18:00,
2013-04-20 18:28:00,58.9,53.1,30.12,NNE,31,0.0,6.0,81,0.00,,,0.77,204,Wunderground v.1.15,2013-04-20 22:28:00,
2013-04-20 18:33:00,59.1,53.3,30.12,NNE,31,1.0,1.0,81,0.00,,,0.77,192,Wunderground v.1.15,2013-04-20 22:33:00,
2013-04-20 18:43:00,59.5,53.3,30.12,NNE,31,0.0,0.0,80,0.00,,,0.77,248,Wunderground v.1.15,2013-04-20 22:43:00,
2013-04-20 18:48:00,59.8,53.6,30.13,NNE,31,1.0,5.0,80,0.00,,,0.77,118,Wunderground v.1.15,2013-04-20 22:48:00,
2013-04-20 18:58:00,59.9,53.4,30.13,NNE,31,1.0,1.0,79,0.00,,,0.77,81,Wunderground v.1.15,2013-04-20 22:58:00,
2013-04-20 19:03:00,59.8,53.3,30.13,NE,42,2.0,2.0,79,0.00,,,0.77,72,Wunderground v.1.15,2013-04-20 23:03:00,
2013-04-20 19:13:00,59.7,53.2,30.13,NE,37,1.0,1.0,79,0.00,,,0.77,62,Wunderground v.1.15,2013-04-20 23:13:00,
2013-04-20 19:18:00,59.6,53.1,30.13,NE,35,1.0,1.0,79,0.00,,,0.77,44,Wunderground v.1.15,2013-04-20 23:18:00,
2013-04-20 19:28:00,59.5,53.3,30.14,NE,35,0.0,1.0,80,0.00,,,0.77,28,Wunderground v.1.15,2013-04-20 23:28:00,
2013-04-20 19:33:00,59.4,53.2,30.14,NE,35,0.0,4.0,80,0.00,,,0.77,26,Wunderground v.1.15,2013-04-20 23:33:00,
2013-04-20 19:43:00,59.2,53.4,30.14,NE,35,0.0,2.0,81,0.00,,,0.77,21,Wunderground v.1.15,2013-04-20 23:43:00,
2013-04-20 19:48:00,59.1,53.3,30.14,NE,35,0.0,2.0,81,0.00,,,0.77,14,Wunderground v.1.15,2013-04-20 23:48:00,
2013-04-20 19:58:00,59.0,53.2,30.15,NE,35,0.0,0.0,81,0.00,,,0.77,5,Wunderground v.1.15,2013-04-20 23:58:00,
2013-04-20 20:03:00,58.9,53.1,30.15,NE,35,0.0,0.0,81,0.00,,,0.77,0,Wunderground v.1.15,2013-04-21 00:03:00,
2013-04-20 20:13:00,58.7,53.2,30.15,NE,35,0.0,0.0,82,0.00,,,0.77,0,Wunderground v.1.15,2013-04-21 00:13:00,
2013-04-20 20:18:00,58.6,53.1,30.15,NE,35,0.0,0.0,82,0.00,,,0.77,0,Wunderground v.1.15,2013-04-21 00:18:00,
2013-04-20 20:28:00,58.5,53.4,30.16,NE,35,0.0,0.0,83,0.00,,,0.77,0,Wunderground v.1.15,2013-04-21 00:28:00,
2013-04-20 20:33:00,58.4,53.3,30.16,NE,35,0.0,0.0,83,0.00,,,0.77,0,Wunderground v.1.15,2013-04-21 00:33:00,
2013-04-20 20:43:00,58.2,53.4,30.16,NE,35,0.0,0.0,84,0.00,,,0.77,0,Wunderground v.1.15,2013-04-21 00:43:00,
2013-04-20 20:48:00,58.1,53.0,30.17,NE,35,0.0,0.0,83,0.00,,,0.77,0,Wunderground v.1.15,2013-04-21 00:48:00,
2013-04-20 20:58:00,57.9,53.1,30.17,NE,35,0.0,0.0,84,0.00,,,0.77,0,Wunderground v.1.15,2013-04-21 00:58:00,
2013-04-20 21:03:00,57.8,53.3,30.17,NE,35,0.0,0.0,85,0.00,,,0.77,0,Wunderground v.1.15,2013-04-21 01:03:00,
2013-04-20 21:13:00,57.6,53.1,30.17,NE,35,0.0,1.0,85,0.00,,,0.77,0,Wunderground v.1.15,2013-04-21 01:13:00,
2013-04-20 21:18:00,57.4,52.9,30.17,NE,35,0.0,1.0,85,0.00,,,0.77,0,Wunderground v.1.15,2013-04-21 01:18:00,
2013-04-20 21:28:00,57.1,53.0,30.18,NE,35,0.0,0.0,86,0.00,,,0.77,0,Wunderground v.1.15,2013-04-21 01:28:00,
2013-04-20 21:33:00,57.0,52.9,30.18,NE,35,0.0,0.0,86,0.00,,,0.77,0,Wunderground v.1.15,2013-04-21 01:33:00,
2013-04-20 21:43:00,56.6,52.5,30.18,NE,35,0.0,0.0,86,0.00,,,0.77,0,Wunderground v.1.15,2013-04-21 01:43:00,
2013-04-20 21:48:00,56.5,52.7,30.18,NE,35,0.0,0.0,87,0.00,,,0.77,0,Wunderground v.1.15,2013-04-21 01:48:00,
2013-04-20 21:58:00,56.4,52.6,30.18,NE,35,0.0,0.0,87,0.00,,,0.77,0,Wunderground v.1.15,2013-04-21 01:58:00,
2013-04-20 22:03:00,56.3,52.8,30.18,NE,35,0.0,0.0,88,0.00,,,0.77,0,Wunderground v.1.15,2013-04-21 02:03:00,
2013-04-20 22:13:00,56.3,52.8,30.18,NE,35,0.0,0.0,88,0.00,,,0.77,0,Wunderground v.1.15,2013-04-21 02:13:00,
2013-04-20 22:18:00,56.2,53.0,30.19,NE,35,0.0,0.0,89,0.00,,,0.77,0,Wunderground v.1.15,2013-04-21 02:18:00,
2013-04-20 22:28:00,56.1,52.9,30.19,NE,35,0.0,0.0,89,0.00,,,0.77,0,Wunderground v.1.15,2013-04-21 02:28:00,
2013-04-20 22:33:00,56.1,52.9,30.19,NE,35,0.0,0.0,89,0.00,,,0.77,0,Wunderground v.1.15,2013-04-21 02:33:00,
2013-04-20 22:43:00,56.2,53.3,30.20,NE,35,0.0,0.0,90,0.00,,,0.77,0,Wunderground v.1.15,2013-04-21 02:43:00,
2013-04-20 22:48:00,56.3,53.4,30.20,NE,35,0.0,0.0,90,0.00,,,0.77,0,Wunderground v.1.15,2013-04-21 02:48:00,
2013-04-20 22:58:00,56.3,53.4,30.20,NE,35,0.0,0.0,90,0.00,,,0.77,0,Wunderground v.1.15,2013-04-21 02:58:00,
2013-04-20 23:03:00,56.3,53.4,30.20,NE,35,0.0,0.0,90,0.00,,,0.77,0,Wunderground v.1.15,2013-04-21 03:03:00,
2013-04-20 23:13:00,56.2,53.3,30.21,NE,35,0.0,0.0,90,0.00,,,0.77,0,Wunderground v.1.15,2013-04-21 03:13:00,
2013-04-20 23:18:00,56.1,53.2,30.21,NE,35,0.0,0.0,90,0.00,,,0.77,0,Wunderground v.1.15,2013-04-21 03:18:00,
2013-04-20 23:28:00,55.9,52.7,30.21,NE,35,0.0,0.0,89,0.00,,,0.77,0,Wunderground v.1.15,2013-04-21 03:28:00,
2013-04-20 23:33:00,55.8,52.9,30.21,NE,35,0.0,0.0,90,0.00,,,0.77,0,Wunderground v.1.15,2013-04-21 03:33:00,
2013-04-20 23:43:00,55.5,52.6,30.21,NE,35,0.0,0.0,90,0.00,,,0.77,0,Wunderground v.1.15,2013-04-21 03:43:00,
2013-04-20 23:48:00,55.5,52.6,30.21,NE,35,0.0,0.0,90,0.00,,,0.77,0,Wunderground v.1.15,2013-04-21 03:48:00,
2013-04-20 23:58:00,55.9,53.0,30.20,NE,35,1.0,1.0,90,0.00,,,0.77,0,Wunderground v.1.15,2013-04-21 03:58:00,